Tracking 29892 objects as of 21-Nov-2024
HD Live streaming from Space Station
objects crossing your sky now

IABS R/B

Track IABS R/B now!


NORAD ID: 25021
Int'l Code: 1997-065C
Perigee: 35,391.8 km
Apogee: 35,763.2 km
Inclination: 14.3 °
Period: 1,425.1 minutes
Semi major axis: 41948 km
RCS: 1.2819 m2 (large)
Launch date: October 25, 1997
Source: United States (US)
Launch site: AIR FORCE EASTERN TEST RANGE (AFETR)

Note: This is a ROCKET BODY
Your satellite tracking list
Your tracking list is empty




NASA's NSSDC Master Catalog

Two Line Element Set (TLE):
1 25021U 97065C   24325.39957854  .00000027  00000-0  00000-0 0  9992
2 25021  14.2919 356.5378 0044266 185.7667 187.1234  1.01048051100701
Source of the keplerian elements: AFSPC